FW6820 Weather Reports


Display with metric or nautical units.
time (UTC)temp
F
wind
direction
speed
MPH
gust
MPH
rain 1hr
in
rain 24hr
in
rain mn
in
humidity
%
barometer
mb
20260502163044 63 355 8.0 16.0 0.00 0.01 0.01 77 1021.5
20260502161556 61 347 6.0 15.0 0.00 0.01 0.01 78 1021.4
20260502151538 61 320 8.0 14.0 0.00 0.01 0.01 77 1020.9
20260502123111 61 348 9.0 14.0 0.00 0.01 0.01 83 1018.5
20260502121538 61 350 7.0 15.0 0.00 0.01 0.01 83 1018.3
20260502114533 61 348 8.0 16.0 0.00 0.01 0.01 83 1017.9
20260502113039 61 352 8.0 13.0 0.00 0.01 0.01 83 1017.3
20260502111540 61 350 7.0 14.0 0.00 0.01 0.01 84 1017.2
20260502110048 61 10 5.0 9.0 0.00 0.01 0.01 84 1016.8
20260502104537 61 332 4.0 10.0 0.00 0.01 0.01 84 1016.6
20260502103035 61 355 6.0 13.0 0.00 0.01 0.01 84 1016.5
20260502101550 61 350 8.0 14.0 0.00 0.01 0.01 84 1016.6
20260502070042 63 5 12.0 21.0 0.00 0.00 0.00 83 1014.9
20260502064547 64 355 13.0 23.0 0.00 0.00 0.00 83 1014.6
20260502063052 64 13 17.0 24.0 0.00 0.00 0.00 82 1014.9
20260502061537 64 5 13.0 25.0 0.00 0.00 0.00 82 1014.9
20260502060044 65 5 15.0 21.0 0.00 0.00 0.00 82 1015.0
20260502054540 65 355 13.0 20.0 0.00 0.00 0.00 82 1014.6
20260502053041 65 355 10.0 23.0 0.00 0.00 0.00 82 1014.4
20260502051536 66 5 17.0 28.0 0.00 0.00 0.00 82 1014.3
20260502050043 66 30 12.0 23.0 0.00 0.00 0.00 82 1014.4
20260502044542 67 19 11.0 23.0 0.00 0.00 0.00 82 1014.4
20260502043038 67 352 13.0 19.0 0.00 0.00 0.00 81 1014.2
20260502041537 67 360 13.0 23.0 0.00 0.00 0.00 82 1014.1
20260502040036 68 346 9.0 17.0 0.00 0.00 0.00 82 1013.8
20260502034541 67 11 13.0 20.0 0.00 0.00 0.00 82 1013.4
20260502033044 68 340 11.0 23.0 0.00 0.00 0.00 82 1013.5
20260502031539 68 350 12.0 22.0 0.00 0.00 0.00 82 1013.1
20260502030036 68 360 11.0 19.0 0.00 0.00 0.00 82 1013.0
20260502024555 68 14 10.0 16.0 0.00 0.00 0.00 83 1012.5
20260502023044 68 348 7.0 14.0 0.00 0.00 0.00 84 1012.1
20260502021540 69 360 7.0 15.0 0.00 0.00 0.00 85 1011.4
20260502020040 69 59 10.0 17.0 0.00 0.00 0.00 84 1011.1
20260502014535 69 19 8.0 20.0 0.00 0.00 0.00 84 1010.7
20260502013043 69 348 9.0 19.0 0.00 0.00 0.00 84 1010.5
20260502011540 69 15 10.0 24.0 0.00 0.00 0.00 84 1010.1
20260502010049 70 352 12.0 23.0 0.00 0.00 0.00 84 1009.8
20260502004555 70 5 10.0 20.0 0.00 0.00 0.00 84 1009.6
20260502003041 70 5 12.0 20.0 0.00 0.00 0.00 84 1009.5
20260502001541 70 345 11.0 24.0 0.00 0.00 0.00 84 1009.1
20260502000039 70 333 12.0 21.0 0.00 0.00 0.00 84 1008.8
20260501234545 72 20 11.0 21.0 0.00 0.00 0.00 83 1008.5
20260501233046 72 355 13.0 21.0 0.00 0.00 0.00 83 1007.9
20260501231543 72 338 13.0 23.0 0.00 0.00 0.00 84 1007.5
20260501230040 73 355 9.0 23.0 0.00 0.00 0.00 84 1007.1
20260501224546 74 314 8.0 20.0 0.00 0.00 0.00 84 1006.7
20260501223041 75 360 11.0 19.0 0.00 0.00 0.00 83 1006.5
20260501221542 76 303 12.0 17.0 0.00 0.00 0.00 82 1006.3
20260501220048 76 11 11.0 18.0 0.00 0.00 0.00 82 1006.1
20260501214540 76 339 9.0 17.0 0.00 0.00 0.00 81 1005.9
20260501213048 76 320 10.0 21.0 0.00 0.00 0.00 80 1005.9
20260501211534 76 310 9.0 20.0 0.00 0.00 0.00 82 1005.9
20260501210045 74 297 11.0 18.0 0.00 0.00 0.00 83 1006.0
20260501204538 75 306 12.0 20.0 0.00 0.00 0.00 82 1006.2
20260501203040 75 278 10.0 21.0 0.00 0.00 0.00 83 1006.1
20260501201539 76 310 12.0 20.0 0.00 0.00 0.00 82 1006.2
20260501200044 76 279 12.0 19.0 0.00 0.00 0.00 84 1006.3
20260501194540 76 290 10.0 18.0 0.00 0.00 0.00 85 1006.5
20260501193042 76 288 10.0 15.0 0.00 0.00 0.00 86 1006.7
20260501191539 76 288 9.0 16.0 0.00 0.00 0.00 87 1006.6
20260501190039 75 323 10.0 18.0 0.00 0.00 0.00 87 1006.6
20260501184547 74 257 9.0 14.0 0.00 0.00 0.00 90 1006.7
20260501183041 73 270 9.0 14.0 0.00 0.00 0.00 91 1006.8
20260501181543 73 300 10.0 18.0 0.00 0.00 0.00 90 1007.1
20260501180050 73 256 8.0 15.0 0.00 0.00 0.00 91 1007.1
20260501174547 74 286 11.0 20.0 0.00 0.00 0.00 89 1007.3
20260501173045 80 266 9.0 15.0 0.00 0.00 0.00 81 1007.4